�N����,����,�~����,�C��,���x,�C��,����,���ϕ���,�ő�u�ԕ���,�ő厞����,���˗�,�I�_���x,�n�����x,�ő啗���N��,DTYPE
"21/11/20","00:10",0.0,8.2,88.1,1012.6,292.4,1.5,2.1,304.5,0.00,6.4,12.9,"00:00:24",1
"21/11/20","00:20",0.0,8.8,88.6,1012.6,286.8,1.5,2.4,309.8,0.00,7.1,12.9,"00:15:52",1
"21/11/20","00:30",0.0,9.1,88.8,1012.8,282.1,0.5,1.2,291.3,0.00,7.4,13.1,"00:20:16",1
"21/11/20","00:40",0.0,9.2,89.1,1013.0,322.5,0.7,1.8,318.7,0.00,7.5,12.9,"00:38:56",1
"21/11/20","00:50",0.0,9.4,89.3,1013.3,326.1,1.2,2.0,322.8,0.00,7.8,12.8,"00:47:44",1
"21/11/20","01:00",0.0,9.3,89.4,1013.5,305.6,1.6,2.2,322.3,0.00,7.7,12.9,"00:50:16",1
"21/11/20","01:10",0.0,9.3,89.5,1013.3,292.9,1.2,1.9,321.9,0.00,7.7,13.0,"01:04:56",1
"21/11/20","01:20",0.0,9.4,89.6,1013.3,305.0,1.3,1.9,313.8,0.00,7.8,13.0,"01:12:32",1
"21/11/20","01:30",0.0,9.4,89.5,1013.5,278.8,1.1,1.7,268.0,0.00,7.8,12.7,"01:25:20",1
"21/11/20","01:40",0.0,9.2,89.6,1013.8,297.3,1.3,1.9,317.5,0.00,7.6,12.9,"01:30:16",1
"21/11/20","01:50",0.0,9.0,89.6,1013.8,284.2,1.5,1.8,317.4,0.00,7.4,12.8,"01:46:56",1
"21/11/20","02:00",0.0,8.8,89.7,1013.3,302.8,1.3,2.1,318.6,0.00,7.2,13.1,"01:51:12",1
"21/11/20","02:10",0.0,8.7,89.7,1013.5,299.3,1.5,2.1,309.1,0.00,7.1,12.8,"02:00:08",1
"21/11/20","02:20",0.0,8.6,89.8,1013.3,308.3,1.5,2.2,333.2,0.00,7.1,12.7,"02:10:08",1
"21/11/20","02:30",0.0,8.4,89.9,1013.5,284.9,1.2,2.0,307.3,0.00,6.9,12.9,"02:20:24",1
"21/11/20","02:40",0.0,8.3,90.1,1013.8,302.7,1.6,2.1,336.4,0.00,6.8,12.8,"02:32:00",1
"21/11/20","02:50",0.0,8.5,90.3,1013.3,301.8,1.7,2.8,326.8,0.00,7.0,12.8,"02:45:36",1
"21/11/20","03:00",0.0,8.5,90.3,1013.3,295.8,0.7,2.1,314.0,0.00,7.0,12.7,"02:50:40",1
"21/11/20","03:10",0.0,8.3,90.6,1013.5,304.2,1.6,2.2,319.4,0.00,6.9,12.7,"03:07:36",1
"21/11/20","03:20",0.0,8.3,90.8,1013.5,303.4,1.3,1.9,301.5,0.00,6.9,12.8,"03:18:40",1
"21/11/20","03:30",0.0,8.4,90.9,1013.3,301.9,1.0,1.6,311.8,0.00,7.0,12.7,"03:24:56",1
"21/11/20","03:40",0.0,8.2,90.9,1013.3,299.8,1.5,2.4,324.0,0.00,6.8,12.7,"03:36:00",1
"21/11/20","03:50",0.0,8.0,91.2,1013.3,310.3,1.0,2.0,321.0,0.00,6.7,12.7,"03:42:00",1
"21/11/20","04:00",0.0,7.9,91.5,1013.3,303.6,1.5,2.0,286.4,0.00,6.6,12.8,"03:53:04",1
"21/11/20","04:10",0.0,7.7,91.8,1013.3,300.4,1.2,2.0,320.0,0.00,6.5,12.7,"04:04:16",1
"21/11/20","04:20",0.0,7.7,91.9,1013.3,291.5,1.1,1.6,307.8,0.00,6.5,12.6,"04:19:44",1
"21/11/20","04:30",0.0,7.6,92.1,1013.3,302.6,1.7,2.4,320.8,0.00,6.4,12.6,"04:27:04",1
"21/11/20","04:40",0.0,7.6,92.2,1013.0,297.9,1.1,2.4,312.9,0.00,6.5,12.7,"04:30:32",1
"21/11/20","04:50",0.0,7.2,92.3,1013.3,285.0,1.1,1.3,277.6,0.00,6.1,12.7,"04:45:28",1
"21/11/20","05:00",0.0,7.1,92.7,1012.8,306.6,1.8,2.7,321.9,0.00,6.0,12.5,"04:58:56",1
"21/11/20","05:10",0.0,7.0,92.8,1012.8,296.9,1.2,2.0,316.1,0.00,6.0,12.5,"05:00:24",1
"21/11/20","05:20",0.0,7.0,93.0,1013.0,294.4,1.3,1.9,307.9,0.00,6.0,12.6,"05:11:52",1
"21/11/20","05:30",0.0,6.9,93.3,1013.0,276.1,1.0,2.1,263.8,0.00,5.9,12.5,"05:26:48",1
"21/11/20","05:40",0.0,7.1,93.5,1013.3,309.5,1.0,2.6,308.1,0.00,6.2,12.5,"05:39:52",1
"21/11/20","05:50",0.0,6.5,93.6,1013.5,313.4,1.7,2.6,318.4,0.00,5.6,12.5,"05:40:16",1
"21/11/20","06:00",0.0,6.6,93.9,1013.0,307.7,1.6,2.1,315.9,0.00,5.7,12.4,"05:59:28",1
"21/11/20","06:10",0.0,6.9,94.1,1013.3,288.8,1.6,2.0,313.6,0.00,6.1,12.4,"06:08:40",1
"21/11/20","06:20",0.0,7.0,94.1,1013.0,303.4,1.3,2.8,323.8,0.00,6.2,12.4,"06:17:36",1
"21/11/20","06:30",0.0,6.8,94.4,1013.0,297.8,1.5,2.5,311.2,0.00,6.0,12.3,"06:20:16",1
"21/11/20","06:40",0.0,6.8,94.4,1012.8,316.3,1.0,2.0,320.8,0.00,6.0,12.4,"06:37:36",1
"21/11/20","06:50",0.0,6.4,94.6,1012.8,291.1,1.5,2.2,316.5,0.00,5.6,12.1,"06:46:40",1
"21/11/20","07:00",0.0,6.2,94.9,1012.6,297.6,0.3,0.9,279.0,0.00,5.5,12.4,"06:56:56",1
"21/11/20","07:10",0.0,6.3,95.2,1013.3,299.9,0.6,1.4,318.0,0.00,5.6,12.2,"07:09:12",1
"21/11/20","07:20",0.0,6.5,95.2,1013.3,309.3,2.0,2.8,324.3,0.00,5.8,12.1,"07:15:04",1
"21/11/20","07:30",0.0,6.8,95.5,1013.5,292.4,1.5,2.0,279.1,0.00,6.2,12.3,"07:24:00",1
"21/11/20","07:40",0.0,6.9,95.5,1013.3,278.3,0.6,1.2,258.5,0.00,6.3,12.2,"07:39:28",1
"21/11/20","07:50",0.0,7.4,95.7,1013.5,288.0,0.8,2.1,313.9,0.01,6.8,12.0,"07:47:52",1
"21/11/20","08:00",0.0,8.1,95.7,1013.8,315.2,1.3,2.6,322.1,0.03,7.5,12.2,"07:57:12",1
"21/11/20","08:10",0.0,8.7,95.7,1014.0,288.9,1.1,2.2,318.8,0.04,8.1,12.2,"08:01:36",1
"21/11/20","08:20",0.0,9.2,95.6,1014.2,270.5,0.7,1.4,276.8,0.05,8.6,12.2,"08:10:08",1
"21/11/20","08:30",0.0,9.8,95.6,1014.5,259.2,0.3,0.8,266.1,0.07,9.2,12.2,"08:22:32",1
"21/11/20","08:40",0.0,10.4,95.5,1014.5,255.2,0.7,1.8,250.5,0.09,9.8,12.2,"08:39:04",1
"21/11/20","08:50",0.0,11.3,95.5,1014.7,272.9,0.8,1.6,250.7,0.12,10.6,12.2,"08:40:24",1
"21/11/20","09:00",0.0,11.8,95.1,1014.5,333.7,0.7,1.6,338.9,0.14,11.1,12.1,"08:50:08",1
"21/11/20","09:10",0.0,11.9,94.7,1014.7,210.6,0.6,1.3,107.1,0.16,11.1,12.1,"09:04:24",1
"21/11/20","09:20",0.0,12.6,94.5,1015.2,309.2,0.6,1.3,262.4,0.18,11.8,12.0,"09:13:12",1
"21/11/20","09:30",0.0,12.8,93.3,1014.9,323.4,0.5,0.9,344.7,0.21,11.8,12.2,"09:22:32",1
"21/11/20","09:40",0.0,13.1,92.2,1015.4,130.2,0.5,1.3,165.1,0.23,11.9,12.3,"09:36:16",1
"21/11/20","09:50",0.0,13.6,91.2,1015.6,141.8,0.6,1.6,110.7,0.25,12.2,12.2,"09:43:20",1
"21/11/20","10:00",0.0,14.0,88.3,1015.6,174.1,0.8,1.6,213.5,0.27,12.1,12.3,"09:54:56",1
"21/11/20","10:10",0.0,14.9,84.4,1015.6,202.7,0.6,1.2,202.7,0.29,12.3,12.3,"10:02:56",1
"21/11/20","10:20",0.0,15.5,79.3,1015.2,216.9,0.7,1.8,213.4,0.30,12.0,12.2,"10:10:48",1
"21/11/20","10:30",0.0,15.8,75.1,1015.2,198.0,0.8,2.5,239.7,0.32,11.4,12.5,"10:29:44",1
"21/11/20","10:40",0.0,16.4,73.0,1014.9,245.9,0.8,2.1,231.0,0.34,11.6,12.4,"10:30:08",1
"21/11/20","10:50",0.0,17.0,71.5,1014.5,224.7,0.8,2.1,245.5,0.35,11.9,12.6,"10:43:44",1
"21/11/20","11:00",0.0,17.7,69.5,1014.9,193.5,0.8,2.5,224.6,0.36,12.1,12.6,"10:50:48",1
"21/11/20","11:10",0.0,18.2,67.5,1014.2,187.9,0.8,2.1,108.2,0.37,12.1,12.6,"11:08:16",1
"21/11/20","11:20",0.0,18.7,65.1,1014.2,170.1,1.1,2.4,110.9,0.38,12.1,12.7,"11:18:16",1
"21/11/20","11:30",0.0,18.8,63.3,1013.8,254.3,1.5,3.1,231.1,0.39,11.7,12.7,"11:25:52",1
"21/11/20","11:40",0.0,19.7,60.9,1013.8,23.0,1.0,2.5,315.8,0.40,12.0,12.9,"11:32:00",1
"21/11/20","11:50",0.0,19.6,58.6,1013.8,359.8,1.6,4.3,18.9,0.35,11.3,13.0,"11:44:08",1
"21/11/20","12:00",0.0,19.5,55.0,1013.5,338.4,2.2,4.9,342.2,0.32,10.3,13.0,"11:56:00",1
"21/11/20","12:10",0.0,19.2,54.2,1013.5,346.5,1.7,3.5,320.0,0.22,9.8,13.0,"12:07:12",1
"21/11/20","12:20",0.0,19.2,54.3,1013.5,317.9,2.0,4.1,339.5,0.26,9.8,13.3,"12:11:28",1
"21/11/20","12:30",0.0,19.8,51.7,1013.3,344.9,2.0,5.5,343.6,0.37,9.6,13.3,"12:29:44",1
"21/11/20","12:40",0.0,20.3,49.6,1013.3,339.9,2.3,4.2,314.4,0.42,9.5,13.3,"12:36:00",1
"21/11/20","12:50",0.0,20.2,49.5,1013.3,337.2,2.6,5.6,337.0,0.42,9.3,13.7,"12:41:36",1
"21/11/20","13:00",0.0,20.3,48.5,1013.3,334.9,2.1,6.5,332.8,0.36,9.1,13.7,"12:58:48",1
"21/11/20","13:10",0.0,20.0,49.3,1013.0,343.4,2.7,5.4,343.4,0.38,9.1,13.7,"13:00:56",1
"21/11/20","13:20",0.0,20.0,49.1,1013.0,336.0,2.6,5.6,337.2,0.38,9.0,13.7,"13:15:12",1
"21/11/20","13:30",0.0,19.8,49.0,1013.0,335.3,2.7,6.4,330.4,0.35,8.8,13.7,"13:27:28",1
"21/11/20","13:40",0.0,19.2,49.1,1013.5,339.9,3.1,6.0,323.7,0.24,8.3,14.0,"13:30:56",1
"21/11/20","13:50",0.0,19.1,50.4,1013.3,339.3,2.5,4.9,339.6,0.20,8.6,13.9,"13:42:40",1
"21/11/20","14:00",0.0,19.7,49.9,1013.3,328.1,2.5,5.2,344.3,0.32,9.0,14.0,"13:59:04",1
"21/11/20","14:10",0.0,19.6,48.4,1013.5,332.1,2.8,7.1,319.8,0.29,8.5,14.0,"14:06:32",1
"21/11/20","14:20",0.0,19.7,48.5,1013.8,328.3,2.5,4.2,349.8,0.27,8.6,14.2,"14:14:16",1
"21/11/20","14:30",0.0,19.8,47.0,1013.3,335.7,2.3,6.7,345.1,0.26,8.2,14.2,"14:26:56",1
"21/11/20","14:40",0.0,19.5,46.8,1013.8,342.1,2.7,5.2,333.5,0.25,7.9,14.2,"14:30:56",1
"21/11/20","14:50",0.0,19.4,48.7,1013.3,342.7,2.3,5.1,330.8,0.20,8.4,14.2,"14:48:56",1
"21/11/20","15:00",0.0,19.1,50.2,1013.3,348.1,2.3,5.2,325.3,0.18,8.5,14.4,"14:56:32",1
"21/11/20","15:10",0.0,19.3,51.1,1013.3,346.8,2.2,4.4,346.4,0.16,9.0,14.3,"15:06:24",1
"21/11/20","15:20",0.0,18.7,51.6,1013.8,332.0,2.8,6.3,347.4,0.14,8.6,14.4,"15:15:28",1
"21/11/20","15:30",0.0,18.7,51.3,1013.8,342.9,2.6,5.1,336.9,0.12,8.5,14.5,"15:22:48",1
"21/11/20","15:40",0.0,18.5,51.3,1013.8,341.1,2.6,5.7,350.6,0.10,8.3,14.4,"15:30:48",1
"21/11/20","15:50",0.0,18.4,52.9,1013.8,334.3,2.3,5.2,341.8,0.08,8.7,14.5,"15:43:20",1
"21/11/20","16:00",0.0,18.1,53.9,1014.0,341.8,2.6,5.2,323.5,0.06,8.7,14.5,"15:51:12",1
"21/11/20","16:10",0.0,17.9,54.3,1014.2,340.8,2.2,4.7,343.3,0.04,8.6,14.5,"16:03:44",1
"21/11/20","16:20",0.0,17.4,54.8,1014.5,332.9,2.7,4.9,337.0,0.03,8.3,14.7,"16:13:20",1
"21/11/20","16:30",0.0,17.0,55.8,1014.5,340.6,2.3,4.8,341.3,0.01,8.2,14.6,"16:23:04",1
"21/11/20","16:40",0.0,16.7,57.4,1014.5,333.0,2.3,5.5,327.1,0.00,8.3,14.7,"16:36:24",1
"21/11/20","16:50",0.0,16.1,59.7,1014.7,327.9,1.6,3.1,326.9,0.00,8.3,14.6,"16:47:36",1
"21/11/20","17:00",0.0,15.8,61.8,1014.2,330.7,1.8,3.7,346.3,0.00,8.5,14.4,"16:56:16",1
"21/11/20","17:10",0.0,15.5,63.2,1014.7,329.9,2.2,4.3,348.4,0.00,8.6,14.5,"17:01:14",1
"21/11/20","17:20",0.0,15.1,64.9,1015.2,330.7,2.2,3.4,339.6,0.00,8.6,14.3,"17:17:00",1
"21/11/20","17:30",0.0,14.8,65.9,1015.2,331.8,2.3,5.1,345.2,0.00,8.5,14.2,"17:29:52",1
"21/11/20","17:40",0.0,14.5,66.5,1015.2,334.6,2.5,3.5,345.2,0.00,8.4,14.3,"17:32:58",1
"21/11/20","17:50",0.0,14.4,66.6,1015.9,330.2,2.2,5.0,331.0,0.00,8.3,14.7,"17:42:42",1
"21/11/20","18:00",0.0,14.4,66.4,1015.4,323.0,2.1,4.1,341.2,0.00,8.3,14.4,"17:51:26",1
"21/11/20","18:10",0.0,14.1,66.9,1015.9,314.7,1.6,3.1,339.8,0.00,8.1,14.6,"18:01:42",1
"21/11/20","18:20",0.0,14.0,67.4,1016.1,303.3,1.5,2.9,333.8,0.00,8.1,14.4,"18:15:08",1
"21/11/20","18:30",0.0,14.0,67.8,1015.9,309.5,1.7,4.3,306.3,0.00,8.2,14.3,"18:28:58",1
"21/11/20","18:40",0.0,14.0,68.0,1015.9,296.7,1.6,3.4,326.0,0.00,8.2,14.4,"18:39:58",1
"21/11/20","18:50",0.0,14.1,68.3,1015.9,320.8,2.3,4.1,336.1,0.00,8.4,14.2,"18:41:26",1
"21/11/20","19:00",0.0,13.8,68.9,1016.1,336.6,1.3,2.5,346.7,0.00,8.2,14.3,"18:50:54",1
"21/11/20","19:10",0.0,13.1,69.8,1016.6,326.9,1.1,2.9,312.3,0.00,7.8,14.3,"19:06:52",1
"21/11/20","19:20",0.0,13.3,71.1,1016.6,322.9,2.0,3.9,321.7,0.00,8.2,14.0,"19:12:12",1
"21/11/20","19:30",0.0,13.3,71.8,1016.6,319.9,2.0,3.5,329.8,0.00,8.4,14.2,"19:29:22",1
"21/11/20","19:40",0.0,13.5,72.2,1016.4,311.6,2.2,3.7,327.5,0.00,8.6,14.2,"19:38:14",1
"21/11/20","19:50",0.0,13.7,72.3,1016.6,316.8,3.0,5.1,321.6,0.00,8.9,14.1,"19:46:54",1
"21/11/20","20:00",0.0,13.7,72.3,1016.6,319.4,2.3,4.1,338.5,0.00,8.9,14.0,"19:53:24",1
"21/11/20","20:10",0.0,12.9,72.5,1016.6,293.3,0.8,2.6,326.5,0.00,8.1,14.1,"20:00:24",1
"21/11/20","20:20",0.0,11.5,74.0,1016.4,277.0,1.0,1.6,331.2,0.00,7.1,14.0,"20:19:06",1
"21/11/20","20:30",0.0,11.2,75.7,1016.4,301.6,1.5,2.0,319.9,0.00,7.1,14.1,"20:26:34",1
"21/11/20","20:40",0.0,10.7,77.3,1016.4,301.7,1.5,1.9,313.2,0.00,6.9,14.0,"20:33:52",1
"21/11/20","20:50",0.0,10.4,79.5,1016.6,303.2,1.5,1.8,319.6,0.00,7.1,14.0,"20:46:24",1
"21/11/20","21:00",0.0,10.3,81.1,1016.6,290.9,1.2,2.1,328.9,0.00,7.2,14.1,"20:53:36",1
"21/11/20","21:10",0.0,9.6,82.3,1016.8,270.2,0.5,1.2,301.8,0.00,6.8,13.8,"21:00:24",1
"21/11/20","21:20",0.0,9.1,83.4,1016.4,296.4,1.3,2.4,326.1,0.00,6.5,13.8,"21:12:48",1
"21/11/20","21:30",0.0,8.8,84.5,1016.1,300.9,1.3,2.6,324.5,0.00,6.4,13.7,"21:29:44",1
"21/11/20","21:40",0.0,8.5,85.2,1016.4,292.4,1.3,2.5,323.8,0.00,6.2,13.8,"21:30:24",1
"21/11/20","21:50",0.0,8.7,85.8,1016.6,282.8,1.3,1.9,313.9,0.00,6.5,13.6,"21:45:20",1
"21/11/20","22:00",0.0,9.4,86.7,1016.6,287.8,1.6,2.4,319.7,0.00,7.3,13.7,"21:59:12",1
"21/11/20","22:10",0.0,9.4,87.2,1016.8,285.2,1.5,1.7,311.5,0.00,7.4,13.6,"22:00:16",1
"21/11/20","22:20",0.0,9.3,87.7,1016.8,300.0,1.6,2.4,319.7,0.00,7.4,13.2,"22:19:20",1
"21/11/20","22:30",0.0,9.0,88.3,1016.4,322.1,2.1,2.6,317.1,0.00,7.2,13.2,"22:21:12",1
"21/11/20","22:40",0.0,8.7,89.0,1016.4,315.6,2.1,2.8,319.9,0.00,7.0,13.4,"22:38:00",1
"21/11/20","22:50",0.0,8.6,89.3,1016.6,305.1,1.5,2.7,318.8,0.00,7.0,13.3,"22:41:36",1
"21/11/20","23:00",0.0,8.4,89.9,1016.8,296.0,1.6,2.1,323.3,0.00,6.9,13.4,"22:57:52",1
"21/11/20","23:10",0.0,9.1,90.2,1016.8,314.9,1.6,2.5,303.9,0.00,7.6,13.3,"23:02:00",1
"21/11/20","23:20",0.0,9.0,90.5,1017.3,307.0,1.5,2.4,299.7,0.00,7.6,13.2,"23:19:36",1
"21/11/20","23:30",0.0,9.1,90.7,1017.3,298.0,1.1,3.5,323.4,0.00,7.7,13.2,"23:21:12",1
"21/11/20","23:40",0.0,9.0,91.0,1017.1,275.8,1.1,1.9,314.0,0.00,7.7,13.3,"23:34:00",1
"21/11/20","23:50",0.0,8.6,91.2,1017.1,295.0,1.3,2.2,315.6,0.00,7.3,13.1,"23:41:28",1
"21/11/20","24:00",0.0,8.2,91.5,1017.1,304.5,1.6,2.2,318.8,0.00,6.9,13.2,"23:50:02",1
